[[{"header":{"parameterUnit":"m.s-1","parameterCategory":1,"la1":30.2991,"la2":30.254,"lo1":-89.0895,"lo2":-89.0444,"dy":0.0017,"dx":0.0017,"nx":28,"ny":28,"refTime":"2024-05-08T03:00:00:Z","depth":0,"parameterNumber":2,"parameterNumberName":"U-component_of_WINDS"},"data":[0,0,0,0,0,0,0,0,0,0,0,0,0,0,0,0,0,0,0,0,0,0,0,0,0,0,0,0,0,0,0,0,0,0,0,0,0,0,0,0,0,0,0,0,0,0,0,0,0,0,0,0,0,0,0,0,0,0,0.0375,0.0376,0,0.0494,0.0495,0.0496,0.0507,0.0506,0.0504,0.0503,0.0631,0.0635,0.0639,0,0,0,0,0,0,0,0,0,0,0,0,0,0.0162,0.0166,0.0375,0.0376,0.0378,0.0493,0.0495,0.0497,0.0507,0.0505,0.0504,0.0502,0.0629,0.0634,0.064,0,0,0,0,0,0,0,0,0,0,0,0,0,0.0265,0.0167,0.0375,0.0397,0.04,0.0493,0.0495,0.0497,0.0507,0.0505,0.0504,0.0502,0.0627,0.0634,0.0641,0.0722,0,0,0.0662,0.0665,0,0,0,0,0,0,0,0,0.0259,0.0273,0.0392,0.0395,0.0399,0.0483,0.0467,0.0573,0.0508,0.0467,0.0503,0.0501,0.0584,0.0594,0.062,0.0728,0.0733,0.0662,0.0666,0.0669,0.0671,0,0,0,0,0,0,0,0.0252,0.0268,0.0422,0.0394,0.0398,0.0402,0.0415,0.0487,0.0535,0.047,0.0471,0.0485,0.0585,0.0614,0.0624,0.0735,0.0662,0.0668,0.0672,0.0675,0.0914,0.0917,0,0,0,0,0,0,0.024,0.0262,0.0418,0.0426,0.0323,0.0408,0.0422,0.0458,0.0534,0.0543,0.0486,0.0485,0.0603,0.0616,0.0628,0.0728,0.0669,0.0676,0.068,0.0912,0.0915,0.0917,0,0,0,0,0,0,0.0236,0.0254,0.0414,0.0344,0.0365,0.0413,0.0454,0.0462,0.049,0.0546,0.0555,0.0507,0.0602,0.0618,0.0698,0.0733,0.0679,0.0685,0.091,0.0913,0.0916,0.0928,0,0,0,0,0,0,0.0229,0.0252,0.0282,0.0345,0.0368,0.048,0.0457,0.0465,0.0502,0.0501,0.0567,0.0577,0.0602,0.0687,0.0705,0.0741,0.0691,0.0907,0.0911,0.0915,0.0925,0.0931,0.0937,0,0,0,0,0,0.0222,0.0282,0.0284,0.0303,0.0407,0.0482,0.0495,0.0521,0.0504,0.0536,0.0571,0.0575,0.0726,0.0695,0.0715,0.0754,0.0905,0.091,0.0915,0.0922,0.093,0.0937,0,0,0,0,0,0,0.0225,0.0291,0.0293,0.0375,0.0423,0.0483,0.0524,0.0529,0.0584,0.0581,0.0613,0.0628,0.0706,0.0738,0.0703,0.0836,0.0814,0.0823,0.0813,0.0821,0.0827,0.0818,0.0696,0,0,0,0,0,0.0235,0.0289,0.0344,0.0411,0.0434,0.0475,0.0509,0.0524,0.0575,0.0596,0.0637,0.0688,0.0747,0.0786,0.0843,0.0929,0.0944,0.0966,0.0972,0.0976,0.0984,0.1033,0.1043,0.0934,0.0934,0.0934,0,0,0.0257,0.0299,0.0332,0.0413,0.0451,0.0508,0.0492,0.0552,0.0595,0.0606,0.0683,0.0715,0.0774,0.0857,0.0896,0.0886,0.1018,0.0983,0.0986,0.0992,0.1039,0.1049,0.1058,0.0937,0.0937,0.0936,0,0,0.0325,0.0362,0.0422,0.0461,0.0518,0.0545,0.0559,0.0619,0.064,0.0717,0.0726,0.0778,0.0879,0.092,0.0955,0.1038,0.1043,0.1056,0.1088,0.1135,0.1144,0.1152,0.1182,0.1192,0.1063,0.1063,0.1063,0,0.0346,0.0429,0.0453,0.0513,0.0549,0.0559,0.0621,0.0657,0.0731,0.0757,0.0744,0.087,0.0911,0.1004,0.1024,0.1051,0.107,0.1049,0.114,0.1148,0.1156,0.1185,0.1197,0.1065,0.1064,0.1064,0.1064,0,0.0452,0.051,0.0552,0.0621,0.0661,0.0722,0.0756,0.0795,0.0806,0.0834,0.0914,0.0962,0.1029,0.1052,0.1066,0.1148,0.114,0.1133,0.1112,0.1167,0.1195,0.1207,0.1066,0.1066,0.1066,0.1065,0,0,0.0527,0.0607,0.0622,0.0654,0.0717,0.0764,0.0825,0.0889,0.0921,0.0972,0.1025,0.111,0.1104,0.1143,0.116,0.1201,0.1265,0.119,0.1192,0.1203,0.1359,0.1364,0.1377,0.1268,0.127,0.1272,0.1354,0,0.0603,0.0711,0.0734,0.0828,0.0882,0.0892,0.0945,0.0991,0.1019,0.107,0.1102,0.1161,0.1148,0.1172,0.1213,0.1248,0.1297,0.1243,0.132,0.1322,0.1305,0.1391,0.1397,0.1472,0.1365,0.1367,0.1369,0,0.0707,0.0758,0.0856,0.0912,0.0936,0.0984,0.1044,0.1092,0.1145,0.1162,0.1205,0.1218,0.1284,0.1257,0.1349,0.1312,0.1345,0.1367,0.137,0.138,0.1349,0.1404,0.1497,0.1509,0.1386,0.1385,0.1384,0,0.0753,0.0846,0.0917,0.0943,0.1011,0.1044,0.1074,0.1124,0.1161,0.1214,0.1238,0.1299,0.1333,0.138,0.141,0.1388,0.1499,0.1476,0.1517,0.1517,0.1541,0.154,0.1642,0.1561,0.1561,0.156,0.156,0,0.0836,0.0896,0.0938,0.0982,0.105,0.1076,0.1143,0.1173,0.1218,0.1269,0.1281,0.1329,0.1365,0.1418,0.1442,0.1515,0.153,0.1547,0.1553,0.1546,0.1544,0.1569,0.1565,0.1563,0.1563,0.1562,0.1562,0,0.0899,0.0929,0.1008,0.1064,0.108,0.1127,0.1176,0.122,0.1247,0.1312,0.1328,0.1372,0.1435,0.1469,0.1549,0.1565,0.1647,0.1649,0.1629,0.1631,0.1671,0.1667,0.1794,0.1813,0.1718,0.1719,0.172,0,0.0951,0.0997,0.1058,0.1092,0.1121,0.1176,0.1213,0.1241,0.1279,0.1342,0.1378,0.1442,0.1494,0.1595,0.1635,0.1696,0.1701,0.1741,0.1711,0.1703,0.1703,0.17,0.1705,0.1747,0.1748,0.1749,0.1749,0,0.1039,0.1052,0.1103,0.1161,0.1204,0.1251,0.1297,0.1325,0.136,0.1403,0.1467,0.1507,0.1587,0.1651,0.1715,0.1748,0.1755,0.1758,0.1771,0.1766,0.1752,0.1761,0.1644,0.1756,0.1755,0.1755,0.1754,0.1754,0.1099,0.114,0.1189,0.1247,0.1284,0.1327,0.137,0.1402,0.1455,0.1522,0.1535,0.1603,0.1654,0.1741,0.1775,0.1829,0.1822,0.184,0.1845,0.185,0.1852,0.1742,0.1841,0.1841,0.1841,0.1841,0.1841,0,0.1189,0.122,0.1273,0.1336,0.1382,0.1382,0.1433,0.1472,0.1531,0.1577,0.1627,0.1701,0.1762,0.1806,0.1869,0.1904,0.191,0.192,0.1919,0.1926,0.1855,0.1838,0.1915,0.1915,0.1915,0.1915,0.1915,0.1915,0.1241,0.1311,0.1329,0.1418,0.145,0.1515,0.1544,0.1584,0.1621,0.1702,0.1752,0.178,0.1826,0.1892,0.1949,0.196,0.1983,0.1994,0.2006,0.1939,0.1931,0.1924,0.1908,0.1998,0.1998,0.2073,0.2073,0.2074]},{"header":{"parameterUnit":"m.s-1","parameterCategory":1,"la1":30.2991,"la2":30.254,"lo1":-89.0895,"lo2":-89.0444,"dy":0.0017,"dx":0.0017,"nx":28,"ny":28,"refTime":"2024-05-08T03:00:00:Z","depth":0,"parameterNumber":3,"parameterNumberName":"V-component_of_WINDS"},"data":[0,0,0,0,0,0,0,0,0,0,0,0,0,0,0,0,0,0,0,0,0,0,0,0,0,0,0,0,0,0,0,0,0,0,0,0,0,0,0,0,0,0,0,0,0,0,0,0,0,0,0,0,0,0,0,0,0,0,5.1777,5.1779,0,5.1938,5.194,5.1942,5.1942,5.194,5.1938,5.1936,5.2094,5.21,5.2106,0,0,0,0,0,0,0,0,0,0,0,0,0,5.1464,5.147,5.1777,5.1779,5.1781,5.1938,5.194,5.1942,5.1943,5.194,5.1938,5.1935,5.2092,5.2099,5.2106,0,0,0,0,0,0,0,0,0,0,0,0,0,5.161,5.1472,5.1777,5.18,5.1804,5.1937,5.194,5.1943,5.1943,5.194,5.1937,5.1934,5.2089,5.2098,5.2107,5.2225,0,0,5.2135,5.2139,0,0,0,0,0,0,0,0,5.1601,5.1621,5.1795,5.1799,5.1804,5.1917,5.1887,5.2037,5.1944,5.189,5.1936,5.1933,5.2037,5.205,5.2087,5.2233,5.2239,5.2136,5.2142,5.2146,5.2148,0,0,0,0,0,0,0,5.1591,5.1614,5.1841,5.1797,5.1803,5.1801,5.1818,5.1916,5.1979,5.1895,5.1895,5.1915,5.2039,5.2078,5.2091,5.2242,5.2136,5.2144,5.215,5.2153,5.2494,5.2498,0,0,0,0,0,0,5.1577,5.1606,5.1835,5.1845,5.1693,5.1809,5.1829,5.1884,5.1978,5.1989,5.1917,5.1914,5.2064,5.208,5.2096,5.2242,5.2145,5.2154,5.2159,5.2491,5.2495,5.2499,0,0,0,0,0,0,5.1571,5.1598,5.1829,5.1726,5.1755,5.1818,5.188,5.1888,5.1928,5.1995,5.2005,5.1946,5.2062,5.2083,5.2194,5.2248,5.2158,5.2167,5.2486,5.2492,5.2497,5.2534,0,0,0,0,0,0,5.1562,5.1596,5.1642,5.1727,5.1761,5.1926,5.1883,5.1894,5.1945,5.1942,5.2025,5.2036,5.2061,5.2181,5.2203,5.2259,5.2174,5.2482,5.2489,5.2495,5.2529,5.254,5.255,0,0,0,0,0,5.1551,5.1644,5.1645,5.1672,5.1821,5.1929,5.1948,5.1978,5.1949,5.1996,5.2039,5.2033,5.2238,5.2192,5.2218,5.2276,5.2479,5.2487,5.2495,5.2524,5.2538,5.255,0,0,0,0,0,0,5.1561,5.1656,5.1657,5.1782,5.1848,5.1929,5.1989,5.1992,5.2066,5.206,5.2092,5.2111,5.2222,5.226,5.2207,5.2396,5.2355,5.2368,5.2368,5.2382,5.2393,5.2381,5.2181,0,0,0,0,0,5.1578,5.1661,5.1738,5.184,5.1874,5.1926,5.1974,5.1992,5.206,5.2088,5.2139,5.2204,5.2283,5.2334,5.2411,5.2534,5.2552,5.2587,5.2598,5.2606,5.2618,5.2687,5.2704,5.2525,5.2525,5.2525,0,0,5.1614,5.1676,5.1725,5.1844,5.1897,5.198,5.1949,5.2037,5.2099,5.21,5.221,5.2249,5.2324,5.2442,5.2496,5.2477,5.2671,5.2617,5.2623,5.263,5.2697,5.2714,5.2729,5.2531,5.253,5.2529,0,0,5.1721,5.1776,5.1869,5.1924,5.2006,5.2041,5.2063,5.2145,5.2172,5.2283,5.2286,5.2358,5.2494,5.2548,5.2593,5.2723,5.2721,5.2747,5.2804,5.2871,5.2885,5.2898,5.2945,5.2962,5.2758,5.2758,5.2758,0,5.1754,5.1882,5.1915,5.2006,5.2058,5.2066,5.2159,5.221,5.2311,5.2347,5.2324,5.2496,5.2547,5.2679,5.2711,5.2746,5.2772,5.2738,5.2881,5.2894,5.2906,5.2952,5.297,5.2761,5.276,5.276,5.276,0,5.1919,5.2008,5.2072,5.2175,5.2234,5.2325,5.237,5.2426,5.2439,5.2475,5.2588,5.2649,5.2739,5.2771,5.2783,5.2905,5.2891,5.2874,5.2833,5.2925,5.2969,5.2987,5.2765,5.2764,5.2763,5.2762,0,0,5.2037,5.2159,5.2182,5.223,5.2322,5.239,5.2481,5.2572,5.262,5.2689,5.2767,5.2882,5.2869,5.292,5.2938,5.2997,5.3098,5.2973,5.2975,5.2995,5.3237,5.325,5.327,5.3097,5.31,5.3103,5.3232,0,5.2156,5.2322,5.2355,5.2498,5.258,5.259,5.2669,5.2733,5.277,5.2844,5.2883,5.2965,5.294,5.2971,5.303,5.3073,5.3147,5.3064,5.3168,5.3171,5.315,5.3293,5.3306,5.3425,5.3249,5.3252,5.3254,0,5.2317,5.2395,5.2547,5.2631,5.2666,5.2738,5.2825,5.2895,5.2968,5.2991,5.3049,5.3061,5.3155,5.3109,5.3239,5.3182,5.3226,5.3254,5.3259,5.3271,5.3219,5.3309,5.3463,5.3482,5.3281,5.3278,5.3276,0,5.2389,5.2532,5.2642,5.2682,5.2782,5.2832,5.2875,5.2946,5.2999,5.3074,5.3109,5.3193,5.3239,5.3303,5.3337,5.33,5.3464,5.3421,5.3485,5.3485,5.352,5.3517,5.3685,5.3547,5.3546,5.3546,5.3546,0,5.2519,5.2612,5.2677,5.2745,5.2849,5.2885,5.2987,5.3029,5.3092,5.3167,5.3179,5.3248,5.3289,5.3364,5.3391,5.3495,5.3515,5.3535,5.3541,5.3535,5.3533,5.3565,5.3558,5.3551,5.355,5.3549,5.3548,0,5.2618,5.2665,5.2787,5.2872,5.2896,5.2969,5.3042,5.3107,5.3144,5.3239,5.3263,5.3321,5.341,5.3451,5.356,5.3578,5.3697,5.3697,5.3674,5.3676,5.3739,5.3733,5.3933,5.3962,5.3804,5.3805,5.3807,0,5.2699,5.2771,5.2866,5.2919,5.2965,5.3048,5.3104,5.3142,5.3199,5.3289,5.3344,5.3434,5.3509,5.3651,5.3701,5.3785,5.3787,5.3852,5.38,5.3792,5.379,5.3786,5.3794,5.3861,5.3863,5.3864,5.3865,0,5.2837,5.2857,5.2938,5.3028,5.3095,5.3167,5.3237,5.3278,5.3328,5.3391,5.3484,5.3542,5.3656,5.3746,5.3833,5.3875,5.3879,5.3882,5.3901,5.3896,5.388,5.3891,5.3701,5.3877,5.3876,5.3875,5.3874,5.3874,5.293,5.2995,5.3073,5.3164,5.3221,5.3287,5.3354,5.3401,5.348,5.3578,5.3595,5.3694,5.3766,5.3885,5.3931,5.4008,5.3992,5.402,5.4027,5.4034,5.4039,5.3867,5.4023,5.4023,5.4023,5.4023,5.4023,0,5.307,5.3121,5.3204,5.3304,5.3375,5.3374,5.3452,5.3511,5.36,5.3668,5.3742,5.385,5.3937,5.3995,5.4084,5.4134,5.4138,5.4156,5.4153,5.4163,5.4047,5.4022,5.4152,5.4152,5.4152,5.4152,5.4152,5.4152,5.3151,5.3263,5.3293,5.3433,5.3483,5.3583,5.3628,5.3688,5.3743,5.3864,5.3938,5.3977,5.4041,5.4134,5.4214,5.4229,5.4261,5.428,5.4294,5.4184,5.4171,5.4158,5.4135,5.4287,5.4287,5.4405,5.4406,5.4406]}]]